contact:dominique.lefevre@mio.osupytheas.fr, maurice.libes@osupytheas.fr, didier.mallarino@osupytheas.fr
Project:EMSO http://www.emso-fr.org/EMSO-France
Depth: 2436.0 m
Title:EMSO Ligure Ouest : Data MII capteur AQUADOPP
Date,Latitude,Longitude,X_East,Y_North,Z_Up,Amplitude_X,Amplitude_Y,Amplitude_Z,Batterie,SoundSpeed,Heading,Pitch,Roll,Pressure,TIS,Speed,Direction
, degrees North, degrees East, m.s-1, m.s-1,m.s-1, 1, 1, 1, Volt, m.s-1, degree, degree, degree, dbar, degree_C, m.s-1, degree
2019-08-30T00:09:04,42.805,6.029,0.011,0.012,-0.034,102.0,111.0,99.0,13.3,1505.2,325.9,-0.8,1.8,2470.093,13.29,0.016,42.5
2019-08-30T00:12:05,42.805,6.029,0.012,0.038,-0.027,102.0,110.0,99.0,13.4,1505.2,326.9,-0.8,1.9,2470.071,13.3,0.039,17.5
2019-08-30T00:15:06,42.805,6.029,0.018,0.023,-0.006,102.0,110.0,98.0,13.4,1505.3,323.0,-0.7,1.8,2470.113,13.31,0.029,38.0
2019-08-30T00:18:07,42.805,6.029,0.015,0.026,0.029,100.0,110.0,98.0,13.4,1505.3,324.8,-0.8,1.9,2470.091,13.32,0.03,30.0
2019-08-30T00:21:08,42.805,6.029,0.017,0.007,-0.015,101.0,111.0,99.0,13.4,1505.3,324.6,-0.7,1.8,2470.088,13.32,0.018,67.6
2019-08-30T00:24:09,42.805,6.029,0.025,0.026,-0.014,103.0,111.0,99.0,13.4,1505.3,325.3,-0.7,1.8,2470.025,13.32,0.036,43.9
2019-08-30T00:27:10,42.805,6.029,0.029,0.028,-0.023,101.0,110.0,99.0,13.4,1505.3,325.7,-0.7,1.8,2470.018,13.32,0.04,46.0
2019-08-30T00:30:11,42.805,6.029,0.007,0.016,0.015,101.0,111.0,99.0,13.3,1505.3,326.4,-0.8,1.8,2470.067,13.32,0.017,23.6
2019-08-30T00:33:12,42.805,6.029,0.009,0.016,-0.032,101.0,109.0,99.0,13.4,1505.3,324.7,-0.7,1.8,2469.966,13.32,0.018,29.4
2019-08-30T00:36:13,42.805,6.029,0.034,0.015,-0.004,102.0,111.0,99.0,13.4,1505.3,325.3,-0.7,1.8,2470.034,13.32,0.037,66.2
2019-08-30T00:39:14,42.805,6.029,0.01,-0.008,-0.008,101.0,111.0,99.0,13.3,1505.3,328.6,-0.7,1.9,2470.02,13.32,0.012,128.7
2019-08-30T00:42:15,42.805,6.029,0.034,0.03,-0.025,101.0,112.0,98.0,13.3,1505.3,325.4,-0.7,1.8,2470.075,13.32,0.045,48.6
2019-08-30T00:45:16,42.805,6.029,0.014,0.005,-0.034,103.0,111.0,98.0,13.4,1505.3,324.8,-0.7,1.8,2470.011,13.33,0.014,70.4
2019-08-30T00:48:17,42.805,6.029,-0.008,0.011,-0.042,102.0,111.0,98.0,13.4,1505.3,323.0,-0.7,1.9,2470.001,13.32,0.013,324.0
2019-08-30T00:51:18,42.805,6.029,-0.008,0.022,-0.033,101.0,111.0,99.0,13.4,1505.3,325.2,-0.7,1.8,2470.062,13.33,0.023,340.0
2019-08-30T00:54:19,42.805,6.029,0.005,0.024,-0.025,101.0,112.0,99.0,13.4,1505.3,326.1,-0.7,1.8,2469.99,13.32,0.024,11.8
2019-08-30T00:57:20,42.805,6.029,0.02,0.008,-0.039,101.0,111.0,99.0,13.4,1505.3,326.5,-0.7,1.8,2469.98,13.32,0.021,68.2
2019-08-30T01:00:21,42.805,6.029,0.002,0.0,-0.022,102.0,112.0,99.0,13.4,1505.3,327.2,-0.7,1.8,2469.968,13.32,0.002,90.0
2019-08-30T01:03:22,42.805,6.029,0.012,0.024,0.004,103.0,112.0,99.0,13.4,1505.3,323.5,-0.7,1.9,2470.016,13.32,0.026,26.6
2019-08-30T01:06:23,42.805,6.029,0.018,0.012,-0.013,101.0,112.0,99.0,13.4,1505.3,324.3,-0.7,1.8,2469.956,13.32,0.021,56.3
2019-08-30T01:09:24,42.805,6.029,0.014,0.019,0.015,101.0,111.0,98.0,13.4,1505.3,326.6,-0.7,1.8,2469.966,13.32,0.023,36.4
2019-08-30T01:12:25,42.805,6.029,0.017,0.02,-0.028,103.0,112.0,97.0,13.4,1505.3,326.1,-0.7,1.9,2469.979,13.32,0.026,40.4
2019-08-30T01:15:26,42.805,6.029,0.033,0.004,-0.021,101.0,112.0,99.0,13.4,1505.3,324.7,-0.7,1.8,2469.977,13.32,0.033,83.1
2019-08-30T01:18:27,42.805,6.029,0.026,0.012,-0.01,101.0,111.0,98.0,13.4,1505.3,327.6,-0.7,1.8,2469.995,13.32,0.028,65.2
2019-08-30T01:21:28,42.805,6.029,0.0,0.017,-0.003,102.0,110.0,99.0,13.4,1505.3,327.7,-0.7,1.9,2469.979,13.32,0.017,0.0
2019-08-30T01:24:29,42.805,6.029,0.017,0.028,0.002,102.0,111.0,99.0,13.4,1505.3,327.5,-0.7,1.8,2469.983,13.32,0.032,31.3
2019-08-30T01:27:30,42.805,6.029,0.011,0.019,-0.02,102.0,112.0,99.0,13.3,1505.3,327.1,-0.7,1.9,2469.976,13.32,0.021,30.1
2019-08-30T01:30:31,42.805,6.029,0.002,0.02,-0.041,103.0,109.0,100.0,13.4,1505.3,327.3,-0.7,1.8,2469.95,13.32,0.02,5.7
2019-08-30T01:33:32,42.805,6.029,0.032,0.004,0.004,102.0,113.0,99.0,13.4,1505.3,325.2,-0.7,1.8,2469.973,13.32,0.032,82.9
2019-08-30T01:36:33,42.805,6.029,0.01,0.013,-0.012,103.0,113.0,99.0,13.4,1505.3,327.2,-0.7,1.8,2469.971,13.32,0.016,37.6
2019-08-30T01:39:34,42.805,6.029,0.031,0.014,0.0,102.0,110.0,100.0,13.3,1505.3,325.3,-0.7,1.8,2469.966,13.32,0.034,65.7
2019-08-30T01:42:35,42.805,6.029,0.009,0.032,-0.012,101.0,112.0,98.0,13.4,1505.3,324.0,-0.7,1.8,2470.008,13.32,0.033,15.7
2019-08-30T01:45:36,42.805,6.029,0.052,0.026,0.007,101.0,111.0,100.0,13.3,1505.3,323.0,-0.7,1.8,2469.955,13.32,0.058,63.4
2019-08-30T01:48:37,42.805,6.029,0.019,0.03,-0.003,102.0,111.0,98.0,13.4,1505.3,327.5,-0.7,1.8,2469.961,13.32,0.035,32.3
2019-08-30T01:51:38,42.805,6.029,0.01,0.026,-0.012,102.0,111.0,99.0,13.4,1505.3,326.5,-0.7,1.8,2469.984,13.32,0.027,21.0
2019-08-30T01:54:39,42.805,6.029,0.017,0.017,-0.047,102.0,111.0,98.0,13.4,1505.3,327.2,-0.7,1.8,2469.979,13.32,0.024,45.0
2019-08-30T01:57:40,42.805,6.029,0.031,0.006,-0.031,103.0,109.0,99.0,13.3,1505.3,327.0,-0.7,1.9,2469.952,13.32,0.031,79.0
2019-08-30T02:00:41,42.805,6.029,0.027,0.031,-0.022,101.0,111.0,99.0,13.3,1505.3,324.5,-0.7,1.8,2469.962,13.32,0.041,41.1
2019-08-30T02:03:42,42.805,6.029,-0.006,0.041,-0.008,101.0,111.0,100.0,13.4,1505.3,326.4,-0.7,1.8,2469.96,13.32,0.041,351.7
2019-08-30T02:06:43,42.805,6.029,0.016,0.017,-0.008,103.0,111.0,98.0,13.4,1505.3,324.3,-0.7,1.8,2469.967,13.32,0.023,43.3
2019-08-30T02:09:44,42.805,6.029,0.027,0.039,-0.008,101.0,112.0,100.0,13.4,1505.3,327.0,-0.7,1.8,2469.993,13.32,0.047,34.7
2019-08-30T02:12:45,42.805,6.029,0.033,0.005,-0.007,102.0,111.0,99.0,13.3,1505.3,324.8,-0.7,1.9,2469.944,13.32,0.033,81.4
2019-08-30T02:15:46,42.805,6.029,0.02,0.012,-0.017,102.0,110.0,99.0,13.4,1505.3,327.4,-0.6,1.8,2469.949,13.32,0.023,59.0
2019-08-30T02:18:47,42.805,6.029,0.017,0.032,-0.033,103.0,111.0,99.0,13.4,1505.3,326.2,-0.7,1.8,2469.988,13.32,0.036,28.0
2019-08-30T02:21:48,42.805,6.029,0.055,-0.003,-0.029,103.0,111.0,98.0,13.4,1505.3,326.0,-0.7,1.9,2469.921,13.32,0.055,93.1
2019-08-30T02:24:49,42.805,6.029,0.023,0.012,-0.003,101.0,111.0,99.0,13.4,1505.3,324.4,-0.7,1.9,2469.992,13.32,0.025,62.4
2019-08-30T02:27:50,42.805,6.029,-0.013,0.013,-0.013,103.0,110.0,99.0,13.4,1505.3,326.6,-0.7,1.8,2469.953,13.32,0.018,315.0
2019-08-30T02:30:51,42.805,6.029,-0.007,0.018,-0.046,102.0,111.0,98.0,13.4,1505.3,325.7,-0.7,1.8,2470.004,13.32,0.019,338.8
2019-08-30T02:33:52,42.805,6.029,0.02,0.01,-0.017,102.0,111.0,98.0,13.4,1505.3,327.6,-0.7,1.8,2469.961,13.32,0.022,63.4
2019-08-30T02:36:53,42.805,6.029,0.024,0.029,-0.025,102.0,110.0,100.0,13.4,1505.3,324.3,-0.7,1.8,2469.98,13.32,0.037,39.6
2019-08-30T02:39:54,42.805,6.029,0.0,0.02,-0.025,102.0,111.0,97.0,13.3,1505.3,326.3,-0.7,1.8,2469.996,13.32,0.02,0.0
2019-08-30T02:42:55,42.805,6.029,0.0,0.001,-0.029,102.0,108.0,99.0,13.4,1505.3,323.5,-0.7,1.8,2469.988,13.33,0.001,0.0
2019-08-30T02:45:56,42.805,6.029,0.0,0.005,-0.052,102.0,110.0,99.0,13.3,1505.3,328.2,-0.7,1.8,2470.03,13.32,0.005,0.0
2019-08-30T02:48:57,42.805,6.029,0.041,0.016,-0.042,101.0,110.0,99.0,13.3,1505.3,324.4,-0.7,1.8,2469.991,13.32,0.044,68.7
2019-08-30T02:51:58,42.805,6.029,0.001,0.021,-0.035,102.0,110.0,99.0,13.4,1505.3,325.8,-0.7,1.8,2469.986,13.32,0.021,2.7
2019-08-30T02:54:59,42.805,6.029,0.012,0.016,0.004,102.0,110.0,99.0,13.4,1505.3,324.7,-0.7,1.8,2469.986,13.33,0.02,36.9
2019-08-30T02:58:00,42.805,6.029,0.025,0.013,-0.027,103.0,109.0,99.0,13.3,1505.3,323.5,-0.7,1.8,2469.964,13.33,0.028,62.5
2019-08-30T03:01:01,42.805,6.029,0.003,0.009,-0.029,103.0,110.0,100.0,13.4,1505.3,325.5,-0.7,1.8,2470.013,13.32,0.009,18.4
2019-08-30T03:04:02,42.805,6.029,0.013,0.013,-0.028,102.0,110.0,100.0,13.4,1505.3,323.0,-0.7,1.8,2469.955,13.32,0.018,45.0
2019-08-30T03:07:03,42.805,6.029,0.006,0.012,-0.036,103.0,110.0,99.0,13.4,1505.3,328.0,-0.7,1.9,2469.983,13.32,0.013,26.6
2019-08-30T03:10:04,42.805,6.029,0.017,-0.002,-0.039,103.0,110.0,99.0,13.4,1505.3,325.7,-0.7,1.8,2470.009,13.32,0.017,96.7
2019-08-30T03:13:05,42.805,6.029,0.016,0.016,-0.034,101.0,111.0,100.0,13.4,1505.3,325.7,-0.7,1.9,2470.011,13.32,0.022,45.0
2019-08-30T03:16:06,42.805,6.029,0.038,0.026,-0.026,102.0,110.0,99.0,13.4,1505.3,325.5,-0.7,1.8,2470.02,13.32,0.046,55.6
2019-08-30T03:19:07,42.805,6.029,-0.005,0.008,-0.022,102.0,109.0,99.0,13.4,1505.3,324.4,-0.7,1.8,2469.994,13.32,0.009,328.0
2019-08-30T03:22:08,42.805,6.029,0.01,-0.001,-0.075,103.0,108.0,99.0,13.4,1505.3,324.5,-0.7,1.8,2469.984,13.33,0.01,95.7
2019-08-30T03:25:09,42.805,6.029,0.033,0.012,-0.039,102.0,110.0,99.0,13.3,1505.3,325.2,-0.7,1.8,2470.023,13.33,0.035,70.0
2019-08-30T03:28:10,42.805,6.029,0.052,0.005,0.0,103.0,109.0,98.0,13.4,1505.3,325.1,-0.8,1.8,2470.005,13.33,0.052,84.5
2019-08-30T03:31:11,42.805,6.029,-0.004,0.018,-0.025,103.0,110.0,99.0,13.4,1505.3,323.5,-0.7,1.8,2470.039,13.33,0.018,347.5
2019-08-30T03:34:12,42.805,6.029,0.003,0.007,-0.006,103.0,111.0,100.0,13.4,1505.3,323.7,-0.7,1.8,2469.991,13.33,0.007,23.2
2019-08-30T03:37:13,42.805,6.029,-0.005,0.008,-0.074,103.0,110.0,100.0,13.3,1505.3,328.6,-0.6,1.8,2470.021,13.33,0.009,328.0
2019-08-30T03:40:14,42.805,6.029,-0.006,0.007,-0.077,102.0,110.0,99.0,13.4,1505.3,324.9,-0.7,1.8,2470.016,13.33,0.009,319.4
2019-08-30T03:43:15,42.805,6.029,0.034,0.031,0.002,102.0,110.0,98.0,13.4,1505.3,326.5,-0.7,1.8,2470.062,13.33,0.046,47.6
2019-08-30T03:46:16,42.805,6.029,0.019,0.015,0.004,101.0,108.0,99.0,13.4,1505.3,324.8,-0.7,1.8,2470.033,13.33,0.024,51.7
2019-08-30T03:49:17,42.805,6.029,0.001,0.002,-0.042,102.0,108.0,99.0,13.4,1505.3,323.4,-0.7,1.8,2470.053,13.33,0.002,26.6
2019-08-30T03:52:18,42.805,6.029,0.032,-0.003,-0.018,102.0,110.0,99.0,13.3,1505.3,325.0,-0.7,1.8,2470.043,13.33,0.032,95.4
2019-08-30T03:55:19,42.805,6.029,-0.005,0.018,-0.043,102.0,108.0,101.0,13.3,1505.3,328.5,-0.7,1.8,2470.023,13.33,0.018,344.5
2019-08-30T03:58:20,42.805,6.029,0.006,-0.018,-0.068,101.0,111.0,100.0,13.3,1505.3,326.8,-0.7,1.8,2470.045,13.33,0.018,161.6
2019-08-30T04:01:21,42.805,6.029,-0.004,0.012,-0.045,101.0,109.0,99.0,13.4,1505.3,326.9,-0.7,1.9,2470.042,13.33,0.012,341.6
2019-08-30T04:04:22,42.805,6.029,0.004,0.01,-0.043,101.0,111.0,98.0,13.4,1505.3,324.7,-0.7,1.8,2470.039,13.33,0.01,21.8
2019-08-30T04:07:23,42.805,6.029,-0.006,0.011,-0.035,102.0,110.0,98.0,13.4,1505.3,325.1,-0.7,1.8,2470.016,13.33,0.012,331.4
2019-08-30T04:10:24,42.805,6.029,-0.01,0.002,-0.017,102.0,111.0,99.0,13.4,1505.3,325.7,-0.7,1.8,2470.06,13.33,0.01,281.3
2019-08-30T04:13:25,42.805,6.029,0.002,0.016,-0.039,102.0,110.0,99.0,13.4,1505.3,326.3,-0.7,1.8,2469.996,13.33,0.016,7.1
2019-08-30T04:16:26,42.805,6.029,0.042,0.029,-0.005,102.0,109.0,98.0,13.4,1505.3,328.5,-0.7,1.8,2470.047,13.33,0.051,55.4
2019-08-30T04:19:27,42.805,6.029,0.004,0.006,-0.031,103.0,109.0,100.0,13.4,1505.3,326.5,-0.7,1.8,2470.063,13.33,0.007,33.7
2019-08-30T04:22:28,42.805,6.029,0.007,0.023,-0.034,102.0,110.0,99.0,13.4,1505.3,324.9,-0.7,1.8,2470.058,13.33,0.024,16.9
2019-08-30T04:25:29,42.805,6.029,0.027,0.032,-0.004,102.0,111.0,99.0,13.4,1505.3,326.9,-0.7,1.8,2470.077,13.33,0.041,40.2
2019-08-30T04:28:30,42.805,6.029,0.042,0.025,-0.022,104.0,113.0,99.0,13.4,1505.3,324.8,-0.7,1.8,2470.043,13.33,0.048,59.2
2019-08-30T04:31:31,42.805,6.029,0.024,0.026,-0.024,102.0,111.0,99.0,13.4,1505.3,324.8,-0.7,1.8,2470.104,13.33,0.035,42.7
2019-08-30T04:34:33,42.805,6.029,0.012,0.021,-0.002,101.0,110.0,99.0,13.4,1505.3,327.6,-0.7,1.8,2470.073,13.33,0.024,29.7
2019-08-30T04:37:33,42.805,6.029,-0.011,0.001,-0.037,103.0,109.0,98.0,13.4,1505.3,327.6,-0.7,1.8,2470.099,13.32,0.011,275.2
2019-08-30T04:40:34,42.805,6.029,0.015,0.01,-0.052,102.0,109.0,99.0,13.4,1505.3,328.0,-0.7,1.8,2470.082,13.33,0.018,56.3
2019-08-30T04:43:35,42.805,6.029,0.022,0.008,-0.035,103.0,108.0,98.0,13.4,1505.3,324.9,-0.7,1.8,2470.062,13.33,0.023,70.0
2019-08-30T04:46:36,42.805,6.029,0.016,0.01,-0.047,102.0,110.0,99.0,13.3,1505.3,325.1,-0.7,1.8,2470.115,13.33,0.018,58.0
2019-08-30T04:49:37,42.805,6.029,0.014,0.0,0.0,102.0,110.0,99.0,13.4,1505.3,324.9,-0.7,1.8,2470.083,13.33,0.014,90.0
2019-08-30T04:52:38,42.805,6.029,-0.003,0.009,-0.037,105.0,109.0,100.0,13.3,1505.3,327.0,-0.7,1.9,2470.061,13.33,0.009,341.6
2019-08-30T04:55:39,42.805,6.029,0.023,0.012,-0.002,103.0,110.0,99.0,13.3,1505.3,327.6,-0.7,1.8,2470.076,13.33,0.025,62.4
2019-08-30T04:58:40,42.805,6.029,0.008,0.006,-0.003,103.0,111.0,99.0,13.4,1505.3,327.9,-0.7,1.8,2470.124,13.33,0.01,53.1
2019-08-30T05:01:41,42.805,6.029,-0.008,0.009,-0.034,102.0,111.0,99.0,13.3,1505.3,327.9,-0.8,1.8,2470.126,13.33,0.012,318.4
2019-08-30T05:04:42,42.805,6.029,0.014,0.008,-0.019,104.0,110.0,100.0,13.4,1505.3,324.7,-0.7,1.8,2470.143,13.33,0.016,60.3
2019-08-30T05:07:43,42.805,6.029,0.028,0.019,-0.015,103.0,109.0,100.0,13.4,1505.3,324.7,-0.7,1.8,2470.066,13.33,0.033,55.8
2019-08-30T05:10:44,42.805,6.029,0.011,0.037,0.016,101.0,109.0,99.0,13.4,1505.3,326.7,-0.7,1.8,2470.122,13.33,0.038,16.6
2019-08-30T05:13:45,42.805,6.029,-0.007,0.014,-0.057,102.0,111.0,99.0,13.4,1505.3,324.5,-0.7,1.8,2470.124,13.33,0.015,333.4
2019-08-30T05:16:46,42.805,6.029,0.031,0.018,0.0,102.0,111.0,100.0,13.4,1505.3,324.7,-0.7,1.8,2470.13,13.33,0.035,59.9
2019-08-30T05:19:47,42.805,6.029,-0.004,-0.006,-0.04,104.0,109.0,99.0,13.4,1505.3,328.2,-0.7,1.9,2470.096,13.33,0.007,213.7
2019-08-30T05:22:48,42.805,6.029,0.015,0.015,-0.039,102.0,109.0,99.0,13.4,1505.3,325.8,-0.7,1.8,2470.103,13.33,0.021,45.0
2019-08-30T05:25:49,42.805,6.029,0.006,0.009,-0.048,101.0,111.0,99.0,13.4,1505.3,323.3,-0.7,1.8,2470.112,13.33,0.01,33.7
2019-08-30T05:28:50,42.805,6.029,0.028,0.013,-0.012,103.0,110.0,99.0,13.4,1505.3,324.5,-0.7,1.8,2470.133,13.33,0.03,65.1
2019-08-30T05:31:51,42.805,6.029,-0.001,0.012,0.004,101.0,110.0,99.0,13.4,1505.3,326.1,-0.7,1.9,2470.099,13.33,0.012,355.2
2019-08-30T05:34:52,42.805,6.029,-0.005,0.009,-0.036,101.0,110.0,98.0,13.4,1505.3,325.9,-0.7,1.8,2470.117,13.33,0.01,330.9
2019-08-30T05:37:53,42.805,6.029,-0.005,0.008,-0.024,101.0,111.0,99.0,13.4,1505.3,325.1,-0.7,1.9,2470.148,13.33,0.009,328.0
2019-08-30T05:40:54,42.805,6.029,0.019,0.012,-0.043,101.0,109.0,99.0,13.4,1505.3,325.3,-0.7,1.8,2470.126,13.33,0.022,57.7
2019-08-30T05:43:55,42.805,6.029,0.025,0.015,-0.001,103.0,110.0,99.0,13.4,1505.3,325.9,-0.7,1.9,2470.134,13.33,0.029,59.0
2019-08-30T05:46:56,42.805,6.029,-0.005,0.022,0.0,102.0,110.0,99.0,13.4,1505.3,324.3,-0.7,1.8,2470.14,13.33,0.022,347.2
2019-08-30T05:49:57,42.805,6.029,0.022,0.008,-0.032,103.0,110.0,100.0,13.4,1505.3,324.5,-0.7,1.8,2470.152,13.33,0.023,70.0
2019-08-30T05:52:58,42.805,6.029,0.037,0.009,-0.016,103.0,108.0,98.0,13.4,1505.3,325.6,-0.7,1.8,2470.088,13.33,0.038,76.3
2019-08-30T05:55:59,42.805,6.029,0.028,-0.002,-0.03,101.0,110.0,99.0,13.4,1505.3,324.4,-0.7,1.8,2470.19,13.33,0.028,94.1
2019-08-30T05:59:00,42.805,6.029,0.03,0.028,-0.01,103.0,110.0,99.0,13.3,1505.3,325.0,-0.7,1.8,2470.154,13.33,0.041,47.0
2019-08-30T06:02:01,42.805,6.029,0.033,0.017,-0.018,101.0,110.0,99.0,13.3,1505.3,324.1,-0.7,1.8,2470.106,13.33,0.037,62.7
2019-08-30T06:05:02,42.805,6.029,0.021,0.021,-0.018,102.0,111.0,99.0,13.4,1505.3,326.4,-0.7,1.9,2470.135,13.33,0.029,45.0
2019-08-30T06:08:03,42.805,6.029,0.012,-0.002,-0.022,103.0,110.0,99.0,13.4,1505.3,324.1,-0.7,1.9,2470.156,13.33,0.012,99.5
2019-08-30T06:11:04,42.805,6.029,0.001,0.002,-0.034,103.0,109.0,99.0,13.4,1505.3,324.3,-0.7,1.8,2470.147,13.33,0.002,26.6
2019-08-30T06:14:05,42.805,6.029,0.003,0.01,-0.008,102.0,110.0,99.0,13.4,1505.3,326.6,-0.7,1.8,2470.121,13.33,0.01,16.7
2019-08-30T06:17:06,42.805,6.029,0.015,0.012,-0.03,102.0,110.0,99.0,13.3,1505.3,324.3,-0.7,1.8,2470.089,13.33,0.019,51.3
2019-08-30T06:20:07,42.805,6.029,0.012,0.016,-0.033,102.0,111.0,98.0,13.4,1505.3,327.4,-0.8,1.8,2470.177,13.33,0.02,36.9
2019-08-30T06:23:08,42.805,6.029,0.033,0.009,-0.013,103.0,109.0,99.0,13.4,1505.3,327.2,-0.7,1.8,2470.166,13.33,0.034,74.7
2019-08-30T06:26:09,42.805,6.029,0.01,0.011,-0.034,102.0,110.0,98.0,13.4,1505.3,325.6,-0.7,1.8,2470.156,13.33,0.014,42.3
2019-08-30T06:29:10,42.805,6.029,-0.001,0.013,-0.037,102.0,110.0,99.0,13.4,1505.3,327.8,-0.7,1.8,2470.137,13.33,0.013,355.6
2019-08-30T06:32:11,42.805,6.029,0.018,0.019,-0.013,102.0,111.0,100.0,13.4,1505.3,325.8,-0.7,1.8,2470.178,13.33,0.026,43.5
2019-08-30T06:35:12,42.805,6.029,0.019,0.028,-0.036,102.0,111.0,99.0,13.3,1505.3,324.2,-0.7,1.8,2470.17,13.33,0.033,34.2
2019-08-30T06:38:13,42.805,6.029,0.015,0.016,0.0,101.0,110.0,99.0,13.4,1505.3,324.3,-0.7,1.9,2470.117,13.33,0.021,43.1
2019-08-30T06:41:14,42.805,6.029,0.017,0.009,-0.04,103.0,110.0,98.0,13.3,1505.3,324.1,-0.7,1.8,2470.134,13.33,0.019,62.1
2019-08-30T06:44:15,42.805,6.029,0.03,0.016,-0.002,102.0,111.0,99.0,13.3,1505.3,324.7,-0.7,1.8,2470.131,13.33,0.034,61.9
2019-08-30T06:47:16,42.805,6.029,0.007,-0.009,-0.04,102.0,111.0,100.0,13.3,1505.3,324.7,-0.7,1.9,2470.181,13.33,0.011,142.1
2019-08-30T06:50:17,42.805,6.029,0.011,0.004,-0.028,101.0,111.0,100.0,13.4,1505.3,326.7,-0.7,1.9,2470.151,13.33,0.011,70.0
2019-08-30T06:53:18,42.805,6.029,0.004,0.009,-0.033,103.0,111.0,99.0,13.3,1505.3,325.8,-0.7,1.8,2470.117,13.33,0.009,24.0
2019-08-30T06:56:19,42.805,6.029,-0.018,0.025,-0.061,102.0,111.0,99.0,13.3,1505.3,324.1,-0.7,1.8,2470.108,13.33,0.03,324.2
2019-08-30T06:59:20,42.805,6.029,0.023,0.009,0.027,102.0,109.0,99.0,13.3,1505.3,326.0,-0.7,1.8,2470.131,13.32,0.024,68.6
2019-08-30T07:02:21,42.805,6.029,0.02,0.023,-0.028,101.0,111.0,99.0,13.4,1505.3,328.4,-0.7,1.8,2470.16,13.32,0.03,41.0
2019-08-30T07:05:22,42.805,6.029,0.011,0.026,0.01,102.0,110.0,99.0,13.3,1505.3,324.1,-0.7,1.9,2470.136,13.33,0.028,22.9
2019-08-30T07:08:23,42.805,6.029,-0.01,0.026,-0.032,105.0,111.0,99.0,13.4,1505.3,325.1,-0.7,1.9,2470.185,13.32,0.027,339.0
2019-08-30T07:11:24,42.805,6.029,0.036,0.006,-0.037,102.0,109.0,98.0,13.4,1505.3,328.8,-0.7,1.8,2470.133,13.32,0.036,80.5
2019-08-30T07:14:25,42.805,6.029,0.011,0.03,-0.054,100.0,113.0,98.0,13.4,1505.3,324.0,-0.7,1.8,2470.192,13.32,0.031,20.1
2019-08-30T07:17:26,42.805,6.029,0.023,0.014,-0.008,102.0,110.0,99.0,13.3,1505.3,324.8,-0.7,1.8,2470.151,13.32,0.026,58.7
2019-08-30T07:20:27,42.805,6.029,0.047,0.016,-0.025,103.0,109.0,98.0,13.4,1505.3,324.8,-0.7,1.8,2470.188,13.32,0.049,71.2
2019-08-30T07:23:28,42.805,6.029,-0.018,0.027,-0.025,102.0,109.0,99.0,13.4,1505.3,326.2,-0.7,1.8,2470.156,13.32,0.032,326.3
2019-08-30T07:26:29,42.805,6.029,0.006,0.011,-0.031,102.0,110.0,99.0,13.4,1505.3,324.2,-0.7,1.8,2470.118,13.33,0.012,28.6
2019-08-30T07:29:30,42.805,6.029,0.0,0.011,0.011,102.0,110.0,98.0,13.4,1505.3,328.2,-0.7,1.8,2470.13,13.32,0.011,0.0
2019-08-30T07:32:31,42.805,6.029,0.039,0.0,-0.019,101.0,111.0,99.0,13.4,1505.3,326.9,-0.7,1.8,2470.157,13.32,0.039,90.0
2019-08-30T07:35:32,42.805,6.029,0.017,0.01,-0.053,103.0,111.0,99.0,13.3,1505.3,327.6,-0.7,1.8,2470.145,13.32,0.019,59.5
2019-08-30T07:38:33,42.805,6.029,0.017,0.003,0.003,101.0,112.0,96.0,13.4,1505.3,324.9,-0.7,1.8,2470.174,13.32,0.017,80.0
2019-08-30T07:41:34,42.805,6.029,0.003,0.027,-0.059,101.0,111.0,98.0,13.4,1505.3,326.6,-0.7,1.8,2470.201,13.32,0.027,6.3
2019-08-30T07:44:35,42.805,6.029,0.019,0.019,-0.039,100.0,111.0,98.0,13.4,1505.3,323.4,-0.7,1.9,2470.139,13.32,0.026,45.0
2019-08-30T07:47:36,42.805,6.029,0.015,0.019,-0.017,102.0,109.0,99.0,13.4,1505.3,323.3,-0.7,1.8,2470.146,13.32,0.024,38.3
2019-08-30T07:50:37,42.805,6.029,0.02,-0.001,-0.008,103.0,108.0,98.0,13.3,1505.3,324.1,-0.7,1.8,2470.139,13.32,0.02,92.9
2019-08-30T07:53:38,42.805,6.029,0.013,0.002,0.0,101.0,110.0,98.0,13.4,1505.3,324.1,-0.7,1.8,2470.114,13.32,0.013,81.3
2019-08-30T07:56:39,42.805,6.029,0.006,0.009,-0.001,102.0,109.0,98.0,13.3,1505.3,325.5,-0.7,1.9,2470.153,13.32,0.01,33.7
2019-08-30T07:59:40,42.805,6.029,0.015,0.016,-0.013,102.0,111.0,98.0,13.4,1505.3,328.8,-0.7,1.8,2470.161,13.32,0.021,43.1
2019-08-30T08:02:41,42.805,6.029,0.038,0.003,-0.012,102.0,110.0,98.0,13.4,1505.3,328.5,-0.7,1.8,2470.147,13.32,0.038,85.5
2019-08-30T08:05:42,42.805,6.029,0.0,0.009,-0.012,101.0,110.0,98.0,13.4,1505.3,328.4,-0.7,1.8,2470.121,13.32,0.009,0.0
2019-08-30T08:08:43,42.805,6.029,0.037,0.02,0.006,102.0,109.0,100.0,13.4,1505.3,328.0,-0.7,1.8,2470.125,13.32,0.042,61.6
2019-08-30T08:11:44,42.805,6.029,0.029,-0.001,-0.036,102.0,109.0,98.0,13.4,1505.3,328.2,-0.7,1.8,2470.156,13.32,0.029,92.0
2019-08-30T08:14:45,42.805,6.029,0.0,0.003,-0.042,101.0,110.0,98.0,13.4,1505.3,324.8,-0.7,1.9,2470.164,13.32,0.003,0.0
2019-08-30T08:17:46,42.805,6.029,0.006,0.011,-0.022,101.0,110.0,99.0,13.4,1505.3,325.7,-0.7,1.8,2470.121,13.32,0.012,28.6
2019-08-30T08:20:47,42.805,6.029,0.025,0.025,-0.014,102.0,110.0,99.0,13.4,1505.3,325.2,-0.7,1.9,2470.144,13.33,0.035,45.0
2019-08-30T08:23:48,42.805,6.029,0.014,0.023,-0.017,102.0,110.0,99.0,13.3,1505.3,324.3,-0.7,1.8,2470.133,13.33,0.026,31.3
2019-08-30T08:26:49,42.805,6.029,0.021,0.02,-0.009,100.0,110.0,99.0,13.4,1505.3,323.2,-0.7,1.8,2470.091,13.32,0.028,46.4
2019-08-30T08:29:50,42.805,6.029,0.023,0.024,0.014,101.0,110.0,100.0,13.4,1505.3,325.0,-0.7,1.8,2470.108,13.32,0.033,43.8
2019-08-30T08:32:51,42.805,6.029,0.032,0.015,-0.018,102.0,110.0,99.0,13.4,1505.3,326.4,-0.7,1.9,2470.114,13.32,0.035,64.9
2019-08-30T08:35:52,42.805,6.029,0.002,0.007,0.009,102.0,109.0,98.0,13.3,1505.3,327.3,-0.7,1.8,2470.097,13.33,0.007,15.9
2019-08-30T08:38:53,42.805,6.029,-0.005,0.02,-0.038,102.0,109.0,97.0,13.4,1505.3,326.7,-0.7,1.8,2470.135,13.33,0.02,346.0
2019-08-30T08:41:54,42.805,6.029,0.034,0.012,-0.004,101.0,110.0,98.0,13.4,1505.3,324.2,-0.7,1.8,2470.11,13.33,0.036,70.6
2019-08-30T08:44:55,42.805,6.029,0.027,-0.002,-0.021,102.0,110.0,97.0,13.4,1505.3,323.7,-0.7,1.8,2470.103,13.33,0.027,94.2
2019-08-30T08:47:56,42.805,6.029,-0.012,-0.001,-0.058,101.0,108.0,99.0,13.4,1505.3,324.1,-0.7,1.8,2470.096,13.33,0.012,265.2
2019-08-30T08:50:57,42.805,6.029,0.018,0.012,0.011,100.0,109.0,97.0,13.4,1505.3,323.6,-0.7,1.9,2470.11,13.33,0.021,56.3
2019-08-30T08:53:58,42.805,6.029,0.025,-0.01,-0.041,102.0,109.0,98.0,13.3,1505.3,323.5,-0.7,1.8,2470.139,13.32,0.026,111.8
2019-08-30T08:56:59,42.805,6.029,-0.011,0.016,-0.014,101.0,110.0,99.0,13.4,1505.3,323.4,-0.7,1.8,2470.111,13.33,0.019,325.5
2019-08-30T09:00:00,42.805,6.029,0.012,0.015,-0.039,101.0,109.0,98.0,13.3,1505.3,324.8,-0.7,1.8,2470.12,13.33,0.019,38.7
2019-08-30T09:03:01,42.805,6.029,-0.006,0.014,-0.043,102.0,110.0,98.0,13.4,1505.3,326.8,-0.8,1.8,2470.12,13.33,0.015,336.8
2019-08-30T09:06:02,42.805,6.029,0.021,0.012,-0.038,100.0,110.0,98.0,13.3,1505.3,326.5,-0.7,1.8,2470.111,13.33,0.024,60.3
2019-08-30T09:09:03,42.805,6.029,0.026,0.002,-0.018,102.0,108.0,99.0,13.3,1505.3,327.1,-0.7,1.8,2470.13,13.33,0.026,85.6
2019-08-30T09:12:04,42.805,6.029,-0.004,0.007,-0.003,101.0,109.0,98.0,13.4,1505.3,327.9,-0.7,1.8,2470.088,13.33,0.008,330.3
2019-08-30T09:15:05,42.805,6.029,0.018,0.018,-0.028,101.0,109.0,98.0,13.3,1505.3,324.8,-0.7,1.8,2470.096,13.33,0.025,45.0
2019-08-30T09:18:06,42.805,6.029,-0.025,-0.003,-0.02,102.0,109.0,99.0,13.3,1505.3,323.7,-0.7,1.8,2470.097,13.33,0.025,263.2
2019-08-30T09:21:07,42.805,6.029,0.024,0.016,-0.002,101.0,110.0,98.0,13.3,1505.3,327.6,-0.8,1.9,2470.13,13.33,0.028,56.3
2019-08-30T09:24:08,42.805,6.029,-0.014,0.021,-0.054,102.0,109.0,98.0,13.4,1505.3,326.4,-0.7,1.8,2470.068,13.33,0.025,326.3
2019-08-30T09:27:09,42.805,6.029,0.034,0.006,0.019,100.0,110.0,98.0,13.4,1505.3,328.0,-0.7,1.9,2470.11,13.33,0.034,80.0
2019-08-30T09:30:10,42.805,6.029,0.017,-0.003,-0.02,101.0,109.0,98.0,13.4,1505.3,325.0,-0.7,1.9,2470.095,13.33,0.017,100.0
2019-08-30T09:33:11,42.805,6.029,-0.003,0.014,-0.022,100.0,110.0,98.0,13.3,1505.3,326.9,-0.7,1.8,2470.095,13.33,0.014,347.9
2019-08-30T09:36:12,42.805,6.029,0.025,0.03,-0.035,101.0,108.0,100.0,13.4,1505.3,324.3,-0.7,1.8,2470.037,13.33,0.039,39.8
2019-08-30T09:39:13,42.805,6.029,0.008,-0.001,-0.03,101.0,112.0,97.0,13.4,1505.3,328.4,-0.7,1.8,2470.083,13.33,0.008,97.1
2019-08-30T09:42:14,42.805,6.029,-0.002,0.016,-0.003,101.0,110.0,99.0,13.4,1505.3,327.2,-0.7,1.9,2470.062,13.33,0.016,352.9
2019-08-30T09:45:15,42.805,6.029,0.019,0.012,-0.032,100.0,111.0,98.0,13.3,1505.3,323.8,-0.7,1.8,2470.105,13.33,0.022,57.7